This is the latest recevied weather packets stored in our database for station/object SA6BET-2. If no packets are shown the sender has not sent any weather packets the latest 10 day(s).
| Time | Temp. | Humidity | Pressure | Rain* | Wind** | Luminosity | Snow |
|---|---|---|---|---|---|---|---|
| 1787642584 | 26.67° C | 100% | 1017.2 hPa | - | - | - | - |
| 1787641683 | 25.56° C | 100% | 1017.2 hPa | - | - | - | - |
| 1787641276 | 25° C | 100% | 1017.1 hPa | - | - | - | - |
| 1787641276 | 25° C | 100% | 1017.3 hPa | - | - | - | - |
| 1787640783 | 25° C | 100% | 1017.3 hPa | - | - | - | - |
| 1787640439 | 25° C | 100% | 1017.1 hPa | - | - | - | - |
| 1787639671 | 24.44° C | 100% | 1017 hPa | - | - | - | - |
| 1787639215 | 24.44° C | 100% | 1017.1 hPa | - | - | - | - |
| 1787638314 | 23.89° C | 100% | 1016.9 hPa | - | - | - | - |
| 1787637414 | 23.89° C | 100% | 1016.8 hPa | - | - | - | - |
| 1787636514 | 23.33° C | 100% | 1016.8 hPa | - | - | - | - |
| 1787635614 | 23.33° C | 100% | 1016.7 hPa | - | - | - | - |
| 1787634713 | 23.33° C | 100% | 1016.5 hPa | - | - | - | - |
| 1787633813 | 23.33° C | 100% | 1016.3 hPa | - | - | - | - |
| 1787632913 | 23.89° C | 100% | 1016.1 hPa | - | - | - | - |
| 1787632013 | 23.89° C | 100% | 1016.2 hPa | - | - | - | - |
| 1787631113 | 23.89° C | 100% | 1016.1 hPa | - | - | - | - |
| 1787630213 | 24.44° C | 100% | 1015.9 hPa | - | - | - | - |
| 1787629312 | 24.44° C | 100% | 1016 hPa | - | - | - | - |
| 1787628412 | 24.44° C | 100% | 1016 hPa | - | - | - | - |
| 1787627512 | 24.44° C | 100% | 1016 hPa | - | - | - | - |
| 1787626612 | 25° C | 100% | 1016 hPa | - | - | - | - |
| 1787625712 | 25° C | 100% | 1016 hPa | - | - | - | - |
| 1787624811 | 25° C | 100% | 1016 hPa | - | - | - | - |
| 1787623911 | 25° C | 100% | 1016 hPa | - | - | - | - |
* Rain since midnight (hover to see other rain measurements)
** Current wind speed in m/s (hover to see current wind gust speed)